Home   Weather   Utahuanta   Past weeks
Flag for Peru

Past Weather in Utahuanta, Arequipa, Peru — Yesterday and Last 2 Weeks

Now
55 °F

Passing clouds.


Feels Like: 55 °F
Forecast: 71 / 48 °F
Wind: 5 mph from North

Location: Arequipa Airport

Current Time: Jul 20, 2019 at 11:36:21 pm

Latest Report: Jul 20, 2019 at 11:00 pm


Visibility: N/A

Pressure: 30.33 "Hg

Humidity: 26%

Dew Point: 21 °F

Location of UtahuantaLocation

Past Weather in Utahuanta — Graph

°F

Utahuanta Temperature Yesterday

Maximum temperature yesterday: 72 °F (at 2:00 pm)
Minimum temperature yesterday: 50 °F (at 5:00 am)
Average temperature yesterday: 61 °F

High & Low Weather Summary for the Past Weeks

 TemperatureHumidityPressure
High73 °F (Jul 6, 12:00 pm)44% (Jul 14, 6:00 pm)30.42 "Hg (Jul 14, 6:00 pm)
Low45 °F (Jul 12, 4:00 am)7% (Jul 8, 1:00 pm)30.24 "Hg (Jul 12, 2:00 pm)
Average59 °F19%30.32 "Hg
* Reported Jul 5 10:00 pm — Jul 20 10:00 pm, Utahuanta. Weather by CustomWeather, © 2019

Note: Actual official high and low records may vary slightly from our data, if they occured in-between our weather recording intervals... More about our weather records

Advertising

Utahuanta Weather History for the Previous 24 Hours

Scroll right to see more
 ConditionsComfort  
Time TempWeatherWind HumidityBarometerVisibility
10:00 pm
Sat, Jul 20
57 °FPassing clouds.9 mph25%30.30 "HgN/A
9:00 pm57 °FPassing clouds.5 mph21%30.30 "HgN/A
8:00 pm61 °FPassing clouds.3 mph19%30.30 "HgN/A
7:00 pm63 °FPassing clouds.3 mph17%30.30 "HgN/A
6:00 pm64 °FPassing clouds.8 mph16%30.27 "HgN/A
5:00 pm68 °FSunny.12 mph14%30.24 "Hg10 mi
4:00 pm70 °FPassing clouds.10 mph15%30.24 "HgN/A
3:00 pm70 °FPassing clouds.10 mph17%30.24 "HgN/A
2:00 pm72 °FSunny.13 mph17%30.24 "Hg10 mi
1:00 pm72 °FPassing clouds.10 mph17%30.27 "HgN/A
12:00 pm72 °FPassing clouds.10 mph19%30.27 "HgN/A
11:00 am72 °FScattered clouds.8 mph20%30.30 "HgN/A
10:00 am72 °FPassing clouds.5 mph19%30.30 "HgN/A
9:00 am68 °FScattered clouds.8 mph23%30.30 "HgN/A
8:00 am64 °FSunny.5 mph22%30.30 "Hg10 mi
7:00 am55 °FPassing clouds.6 mph31%30.27 "HgN/A
6:00 am55 °FClear.7 mph28%30.24 "Hg10 mi
5:00 am52 °FPassing clouds.1 mph30%30.24 "HgN/A
4:00 am55 °FPassing clouds.6 mph28%30.24 "HgN/A
3:00 am57 °FPassing clouds.8 mph29%30.24 "HgN/A
2:00 am63 °FPassing clouds.13 mph30%30.27 "HgN/A
1:00 am61 °FPassing clouds.8 mph27%30.27 "HgN/A
12:00 am61 °FPassing clouds.5 mph20%30.30 "HgN/A
11:00 pm
Fri, Jul 19
61 °FPassing clouds.5 mph20%30.30 "HgN/A
Weather by CustomWeather, © 2019

See weather overview